Tracking 31027 objects as of 19-Jul-2025
HD Live streaming from Space Station
objects crossing your sky now

OBJECT C

Track OBJECT C now!
10-day predictions


NORAD ID: 58919
Int'l Code: 2024-024C
Perigee: 456.2 km
Apogee: 457.4 km
Inclination: 97.3 °
Period: 93.6 minutes
Semi major axis: 6827 km
RCS: Unknown
Launch date: February 3, 2024
Source: (TBD)
Launch site: ()
Your satellite tracking list
COSMOS 830
Track 1 satellite(s)




NASA's NSSDC Master Catalog

Two Line Element Set (TLE):
1 58919U 24024C   25199.83089128  .00014948  00000-0  39149-3 0  9994
2 58919  97.3494 277.4045 0000910  91.5815 268.5535 15.38800272 81153
Source of the keplerian elements: AFSPC